Location: Unspecified
(0.0000°N, 0.0000°E)
Time: 06:14:15
(UTC+00:00)

LightSail 2 - Pass Details

Date: 12 October 2019
Orbit: 707 x 723 km, 24.0° (Epoch: 13 October)

Event Time Altitude Azimuth Distance (km) Brightness Sun altitude
Exits shadow 04:04:28 30° 194° (SSW) 1,244 6.3 -25.3°
Drops below altitude 10° 04:08:31 10° 142° (SE) 2,172 8.2 -24.3°
Sets 04:11:12 0° 132° (SE) 3,089 9.3 -23.7°
